{"data":{"norad_id":33459,"epoch":"2026-05-25T03:38:44.387232Z","epoch_age_seconds":76021,"freshness":"FRESH","line1":"1 33459U 08065A   26145.15190263 -.00000284  00000+0  00000+0 0  9991","line2":"2 33459   2.8935  79.4543 0004061 345.3855 182.2866  1.00269903 47115","mean_motion":1.00269903,"eccentricity":0.0004061,"inclination_deg":2.8935,"raan_deg":79.4543,"arg_perigee_deg":345.3855,"mean_anomaly_deg":182.2866,"bstar":0,"rev_number":4711,"period_min":1436.1238586219,"perigee_km":35769.999250453,"apogee_km":35804.24587427,"semimajor_km":42165.259562361,"source":"CELESTRAK","updated_at":"2026-05-25T13:38:13.861844Z"}}